Regional Weather Roundup
Issued by NWS Mobile, AL

Current Version | Previous Version | Text Only | Print | Product List | Glossary On
Versions: 1 2 3 4 5 6 7 8 9 10 11 12 13 14 15 16 17 18 19 20 21 22 23 24 25 26 27 28 29 30 31 32 33 34 35 36 37 38 39 40 41 42 43 44 45 46 47 48 49 50
924
ASUS44 KMOB 200212
RWRMOB
REGIONAL WEATHER ROUNDUP
NATIONAL WEATHER SERVICE MOBILE AL
800 PM CST SUN FEB 19 2017

NOTE: "FAIR" INDICATES FEW OR NO CLOUDS BELOW 12,000 FEET WITH NO
      SIGNIFICANT WEATHER AND/OR OBSTRUCTIONS TO VISIBILITY.

  * THESE STATIONS ARE PART OF THE UNIVERSITY OF SOUTH ALABAMA
    MESONET AND ARE NOT UNDER NWS OR FAA QUALITY CONTROL.

ALZ061>064-200300-
COASTAL ALABAMA

CITY           SKY/WX    TMP DP  RH WIND       PRES   REMARKS
MOBILE REG APT CLEAR     61  57  87 CALM      30.09R
BROOKLEY FIELD CLEAR     62  61  96 CALM      30.09R
USA CAMPUS*    NOT AVBL
DOG RIVER*     NOT AVBL


CITY           SKY/WX    TMP DP  RH WIND       PRES   REMARKS
GULF SHORES    FOG       60  60 100 CALM      30.07S VSB 1/4

$$

ALZ051>060-200300-
INTERIOR SOUTHWEST AND SOUTH CENTRAL ALABAMA

CITY           SKY/WX    TMP DP  RH WIND       PRES   REMARKS
GREENVILLE     CLEAR     60  53  77 CALM      30.09R
EVERGREEN      CLEAR     60  55  83 CALM      30.09R
ATMORE*        NOT AVBL
ANDALUSIA/OPP    N/A     63  55  75 CALM      30.09R
ANDALUSIA*     NOT AVBL
FLORALA APT    CLEAR     60  55  83 CALM      30.10S
FLORALA*       NOT AVBL

$$

FLZ001>006-200300-
WESTERN FLORIDA PANHANDLE

CITY           SKY/WX    TMP DP  RH WIND       PRES   REMARKS
PENSACOLA      CLEAR     66  61  84 SW5       30.07S
NAS PENSACOLA  CLEAR     62  61  96 CALM      30.07S
MILTON         LGT RAIN  60  57  89 CALM      30.08S
WHTNG S FIELD  CLEAR     66  60  81 CALM      30.08S


CITY           SKY/WX    TMP DP  RH WIND       PRES   REMARKS
JAY*           NOT AVBL
DUKE FIELD     CLEAR     62  59  88 S5        30.08R
CRESTVIEW      CLEAR     64  58  80 CALM      30.10R
VALPARAISO     PTCLDY    64  62  92 CALM      30.09R
DESTIN         CLEAR     70  66  87 CALM      30.08R

$$

MSZ076-079-200300-
INTERIOR SOUTHEAST MISSISSIPPI

CITY           SKY/WX    TMP DP  RH WIND       PRES   REMARKS
LEAKESVILLE*   NOT AVBL
AGRICOLA*      NOT AVBL

$$

MARINE OBSERVATIONS

STATION/POSITION TIME  TEMP    WIND        PRES    WAVE
                       AIR SEA DIR/SP/G            HT/PER
                 (UTC) (F)     (DEG/KT/KT) (MB)    (FT/S)
PASCAGOULA       0148   65     140/  2/  3 1018.2R
PETIT BOIS ISLND 0148   65     150/  4/  5 1019.0R
GRAND BAY        0030   67     150/  5     1019.0S
KATRINA CUT      0100          150/  6     1017.6
CEDAR POINT      0130   66     120/  3     1017.6F
E DAUPHIN ISLAND 0100   67     140/  5/  6 1017.4F
MIDDLE BAY LIGHT 0100   65     110/  2     1018.0
USCG MOBILE BAY  0148   65 63  180/  2/  4 1018.9R
STATE DOCKS      0148   65 63              1018.3R
MEAHER PARK      0130   65     160/  5     1018.0S
WEEKS BAY        0045   65                   N/A
FORT MORGAN      0148   67     150/  7/  7   N/A
12 S ORANGE BCH  0050   68 68  170/  8/ 10 1018.2S   2/ 6
PENSACOLA BAY    0148   67 66  230/  3/  4 1018.5F
67 S FORT MORGAN 0130   69     100/ 12     1017.6S

$$

SELECTED LOCATIONS ACROSS THE REGION

CITY           SKY/WX    TMP DP  RH WIND       PRES   REMARKS
NEW ORLEANS    PTCLDY    67  64  90 SE8       30.06R
GULFPORT       CLEAR     61  60  97 CALM      30.07R
PASCAGOULA AP  FOG       57  55  93 CALM      30.08R VSB 1/2
PASCAGOULA*    NOT AVBL
HATTIESBURG    CLEAR     63  54  72 CALM      30.08R
LAUREL         CLEAR     57  50  77 CALM      30.09R
MERIDIAN       CLEAR     62  56  80 CALM      30.08R
JACKSON        CLEAR     65  54  67 CALM      30.08R
MONTGOMERY     CLEAR     63  48  58 CALM      30.10R
TROY           CLEAR     57  52  83 CALM      30.10R
ASHFORD*       NOT AVBL
DOTHAN         CLEAR     61  55  81 CALM      30.13R
PANAMA CITY    CLEAR     64  59  83 CALM      30.08R

$$





USA.gov is the U.S. government's official web portal to all federal, state and local government web resources and services.